Regional Weather Roundup
Issued by NWS

Home | Current Version | Previous Version | Text Only | Print | Product List | Glossary Off
Versions: 1 2 3 4 5 6 7 8 9 10 11 12 13 14 15 16 17 18 19 20 21 22 23 24 25 26 27 28 29 30 31 32 33 34 35 36 37 38 39 40 41 42 43 44 45 46 47 48 49 50

882
ASUS43 KOAX 242310
RWRNE

WEATHER ROUNDUP FOR NEBRASKA
NATIONAL WEATHER SERVICE OMAHA NE
600 PM CDT SUN SEP 24 2017

NOTES: SATELLITE DATA IS BEING USED TO AUGMENT CLOUD COVER ABOVE
       12000 FEET.
       "FAIR" INDICATES FEW OR NO CLOUDS BELOW 12,000 FEET WITH NO
       SIGNIFICANT WEATHER AND/OR OBSTRUCTIONS TO VISIBILITY.


NEZ001>004-019>022-054>056-250000-
NEBRASKA PANHANDLE

CITY           SKY/WX    TMP DP  RH WIND       PRES   REMARKS
SCOTTSBLUFF    CLOUDY    52  43  71 NE14      30.02S
ALLIANCE       CLOUDY    50  43  77 NE10      30.03R
CHADRON        CLOUDY    51  42  71 E12       30.05S
GORDON         CLOUDY    49  44  85 N10       30.05R
KIMBALL        CLOUDY    49  46  86 E12       30.01S
SIDNEY         CLOUDY    51  47  86 NE10      30.00F
$$

NEZ057>060-069>072-079>082-250000-
SOUTHWEST NEBRASKA

CITY           SKY/WX    TMP DP  RH WIND       PRES   REMARKS
NORTH PLATTE   LGT RAIN  55  53  93 N9        29.98F
IMPERIAL       CLOUDY    53  50  89 NE13      29.98S
LEXINGTON      LGT RAIN  57  55  92 N9        29.96F
MCCOOK         LGT RAIN  56  56 100 NE9       29.95F FOG
OGALLALA       CLOUDY    55  49  81 NE9       30.00S
$$

NEZ005>010-023>029-035>040-094-250000-
NORTH CENTRAL NEBRASKA

CITY           SKY/WX    TMP DP  RH WIND       PRES   REMARKS
VALENTINE      CLOUDY    55  47  74 N10       30.03R
AINSWORTH      CLOUDY    54  50  87 N12       30.02R
BROKEN BOW     LGT RAIN  57  52  83 N8        29.97S
O`NEILL        CLOUDY    55  54  95 NW14      29.99S
ORD            CLOUDY    58  51  78 N10       29.97R
THEDFORD       DRIZZLE   55  50  83 N12       30.02R
$$

NEZ041-046>049-061>064-073>077-083>087-250000-
SOUTH CENTRAL NEBRASKA

CITY           SKY/WX    TMP DP  RH WIND       PRES   REMARKS
GRAND ISLAND   LGT RAIN  60  57  89 N10       29.95R
AURORA         CLOUDY    63  58  85 N9        29.94R
HASTINGS       CLOUDY    60  57  89 N10       29.95R
HEBRON         CLOUDY    79  63  57 NW10      29.88R
HOLDREGE       CLOUDY    57  55  94 N9        29.96R
KEARNEY        LGT RAIN  58  56  93 N10       29.96R
YORK           CLOUDY    68  61  77 NW12      29.92R
$$

NEZ011>018-030>034-042>045-250000-
NORTHEAST NEBRASKA

CITY           SKY/WX    TMP DP  RH WIND       PRES   REMARKS
NORFOLK        CLOUDY    59  57  93 NW12      29.94R
ALBION         CLOUDY    58  56  90 N10       29.96R
BLAIR          CLOUDY    72  68  88 CALM      29.88R
COLUMBUS       CLOUDY    65  59  81 NW8G17    29.93R
FREMONT        CLOUDY    75  61  62 NW15      29.90R
TEKAMAH        CLOUDY    78  63  59 N9        29.89R
WAYNE          CLOUDY    63  60  90 N10       29.95R
$$

NEZ050>053-065>068-078-088>093-250000-
SOUTHEAST NEBRASKA

CITY           SKY/WX    TMP DP  RH WIND       PRES   REMARKS
LINCOLN        CLOUDY    84  65  52 S10       29.85F
OMAHA EPPLEY   CLOUDY    78  67  68 CALM      29.87S
BEATRICE       CLOUDY    84  65  52 S5        29.86S
FALLS CITY     MOSUNNY   85  62  46 S10       29.86F
NEBRASKA CITY  MOSUNNY   82  66  58 SE5       29.87S
PLATTSMOUTH    PTSUNNY   80  64  59 SE5       29.88R
$$

NEZ044-045-051>053-067-250000-
OMAHA AREA

CITY           SKY/WX    TMP DP  RH WIND       PRES   REMARKS
OMAHA EPPLEY   CLOUDY    78  67  68 CALM      29.87S
BLAIR          CLOUDY    72  68  88 CALM      29.88R
FREMONT        CLOUDY    75  61  62 NW15      29.90R
MILLARD        MOSUNNY   79  68  68 CALM      29.86S
OFFUTT AFB     PTSUNNY   77  68  73 E5        29.87R
PLATTSMOUTH    PTSUNNY   80  64  59 SE5       29.88R
WAHOO          FAIR      79  64  60 NW13      29.88R
$$




USA.gov is the U.S. government's official web portal to all federal, state and local government web resources and services.